Погода в Пеньках

Россия / Ивановская область     56°49′16″N   42°13′13″E
В апреле 2022 года жителям России запретили посещать сайт meteo.paraplan.net по решению Генеральной прокуратуры. Аудитория сайта уменьшилась в 10 раз. Владельцы сайта не видят смысла в поддержке погодного сервера в таких условиях. Сайт будет закрыт в октябре.
темп.,
°C
ветер,
м/с
пор.,
м/с
влажн.,
%
обл.,
%
осадки,
мм/ч
давл.,
гПа
погр.,
м
3 октября, пн
пн300:00+10всв3490100 0.0 100685
03:00+12в41195100 0.0 1004287
06:00+12в4998100 0.1 1003236
09:00+15вюв51488100 0.5 1003662
12:00+18юв71366100 0.0 10031036
15:00+18юв81660100 0.0 10031582
18:00+14ююв71379100 0.2 10061119
21:00+11ю61273100 0.4 10091050
4 октября, вт
вт400:00+9ююв5137813 0.0 1011654
03:00+9юв513814 0.0 1012555
06:00+9ююв5138355 0.0 1013505
09:00+11ююв61372100 0.0 1014725
12:00+15ююв7145778 0.0 10141628
15:00+16ююв6125653 0.0 10141735
18:00+13ююв61374100 0.5 1014785
21:00+11юв5128341 1.1 1014470
5 октября, ср
ср500:00+11ююв6128898 1.8 1014834
03:00+11ююв51293100 2.9 1013675
06:00+10ююв41191100 0.9 1013674
09:00+10ю51179100 1.8 10131176
12:00+9ю5987100 0.6 10131295
15:00+9ю4989100 1.1 1013637
18:00+8зюз3693100 1.4 1013464
21:00+7юз3689100 3.0 1013883
6 октября, чт
чт600:00+6юз3593100 1.1 1013860
03:00+6з3692100 1.8 1014761
06:00+6з379083 0.3 1015404
09:00+7з358318 0.3 1015488
12:00+9з446987 0.1 10151136
15:00+10зюз356353 0.3 10141182
18:00+6ююз37845 0.0 1015142
21:00+5ююз389294 0.0 1013219
7 октября, пт
пт700:00+7ююз41195100 0.8 1011490
03:00+9зюз41298100 1.4 1010563
06:00+10з511866 0.2 1011579
09:00+9з51183100 0.2 10121040
12:00+10з61176100 0.0 10131106
15:00+10з6137997 0.1 10131135
18:00+10з7137526 0.1 10141008
21:00+9з614800 0.2 1016885